Location: Home
(42.5358°N, 72.7383°W)
Time: 05:49:30
(UTC-05:00)

Courier 1B Rocket - Pass Details

Date: 02 December 2021
Orbit: 920 x 1202 km, 28.2° (Epoch: 25 January)

Event Time Altitude Azimuth Distance (km) Brightness Sun altitude
Rises 03:29:34 0° 251° (WSW) 3,555 - -38.5°
Reaches altitude 10° 03:33:31 10° 227° (SW) 2,634 - -37.8°
Maximum altitude 03:36:36 14° 197° (SSW) 2,378 - -37.2°
Drops below altitude 10° 03:39:46 10° 168° (SSE) 2,694 - -36.6°
Exits shadow 03:40:00 10° 166° (SSE) 2,738 7.4 -36.6°
Sets 03:43:54 0° 144° (SE) 3,697 8.4 -35.9°
